Location: Kawakawa
(35.3830°S, 174.0670°E)
Time: 17:31:44
(UTC+13:00)

Altair - Pass Details

Date: 12 December 2019
Orbit: 1502 x 1682 km, 47.2° (Epoch: 28 January)

Event Time Altitude Azimuth Distance (km) Brightness Sun altitude
Rises 14:35:10 0° 241° (WSW) 4,896 10.3 69.0°
Reaches altitude 10° 14:38:27 10° 236° (SW) 3,926 9.9 68.5°
Maximum altitude 14:48:20 53° 160° (SSE) 2,002 8.7 66.7°
Drops below altitude 10° 14:58:15 10° 84° (E) 3,947 9.5 64.8°
Sets 15:01:32 0° 79° (E) 4,922 9.9 64.2°
